Weather History for Mattoon, IL

Change the Weather History Date:

Monday, September 30, 2013

  Actual Average Record
Temperature  
Mean Temperature 67 °F 61 °F  
Max Temperature 76 °F 72 °F 90 °F (1952)
Min Temperature 58 °F 49 °F 33 °F (1949)
Degree Days  
Heating Degree Days 0 6  
Month to date heating degree days 30 66  
Since 1 July heating degree days 40 71  
Cooling Degree Days 2 2  
Month to date cooling degree days 172 118  
Year to date cooling degree days 976 1038  
Growing Degree Days 16 (Base 50)    
Moisture  
Dew Point 60 °F    
Average Humidity 75    
Maximum Humidity 100    
Minimum Humidity 50    
Precipitation  
Precipitation 0.00 in 0.14 in 1.35 in (1977)
Month to date precipitation 0.48 3.07  
Year to date precipitation 38.73 28.97  
Sea Level Pressure  
Sea Level Pressure 29.98 in    
Wind  
Wind Speed 6 mph (South)    
Max Wind Speed 14 mph    
Max Gust Speed 18 mph    
Visibility 5 miles    
Events Fog    
T = Trace of Precipitation, MM = Missing Value Source: NWS Daily Summary

Daily Weather History Graph

Daily Weather History Graph

Search for Another Location

Airport:

Trip Planner

Search our weather history database for the weather conditions in past years. The results will help you decide how hot, cold, wet, or windy it might be!

Date:

Astronomy

Sep. 30, 2013 Rise Set
Actual Time 6:48 AM CDT 6:36 PM CDT
Civil Twilight 6:21 AM CDT 7:03 PM CDT
Nautical Twilight 5:50 AM CDT 7:34 PM CDT
Astronomical Twilight 5:19 AM CDT 8:06 PM CDT
Moon 2:26 AM CDT (9/30) 4:06 PM CDT (9/30)
Length of Visible Light 12h 41m
Length of Day
11h 48m
Waning Crescent, 19% of the Moon is Illuminated
Sep 30
Waning Crescent
Oct 4
New
Oct 11
First Quarter
Oct 18
Full
Oct 26
Last Quarter

Hourly Weather History & Observations

Time (CDT) Temp. Dew Point Humidity Pressure Visibility Wind Dir Wind Speed Gust Speed Precip Events Conditions
12:03 AM 57.2 °F 57.2 °F 100% 29.99 in 0.2 mi SSE 4.6 mph - N/A Fog Fog
12:53 AM 57.9 °F 57.9 °F 100% 29.98 in 0.2 mi South 3.5 mph - N/A Fog Fog
1:40 AM 59.0 °F 59.0 °F 100% 29.99 in 0.2 mi Calm Calm - N/A Fog Fog
1:53 AM 59.0 °F 59.0 °F 100% 29.98 in 0.2 mi Calm Calm - N/A Fog Fog
2:10 AM 59.0 °F 59.0 °F 100% 29.98 in 0.2 mi Calm Calm - N/A Fog Fog
2:24 AM 60.8 °F 60.8 °F 100% 29.98 in 0.2 mi South 3.5 mph - N/A Fog Fog
2:53 AM 60.1 °F 60.1 °F 100% 29.97 in 0.2 mi South 3.5 mph - N/A Fog Fog
3:53 AM 60.1 °F 60.1 °F 100% 29.96 in 0.2 mi South 4.6 mph - N/A Fog Fog
4:27 AM 59.0 °F 59.0 °F 100% 29.97 in 0.5 mi South 5.8 mph - 0.01 in Fog Fog
4:53 AM 59.0 °F 59.0 °F 100% 29.96 in 0.5 mi South 4.6 mph - 0.01 in Fog Fog
5:53 AM 59.0 °F 59.0 °F 100% 29.98 in 0.5 mi South 3.5 mph - N/A Fog Fog
6:29 AM 60.8 °F 60.8 °F 100% 30.00 in 1.2 mi South 3.5 mph - N/A   Overcast
6:53 AM 60.1 °F 60.1 °F 100% 30.00 in 1.5 mi SSE 5.8 mph - N/A   Overcast
7:08 AM 60.8 °F 60.8 °F 100% 30.01 in 2.5 mi South 5.8 mph - N/A   Overcast
7:31 AM 59.0 °F 59.0 °F 100% 30.01 in 1.2 mi SSE 4.6 mph - N/A   Overcast
7:53 AM 59.0 °F - N/A% 30.01 in 2.5 mi SSE 5.8 mph - N/A   Overcast
8:04 AM 59.0 °F - N/A% 30.01 in 3.0 mi South 4.6 mph - N/A   Overcast
8:25 AM 60.8 °F - N/A% 30.01 in 2.5 mi South 5.8 mph - N/A   Overcast
8:36 AM 59.0 °F - N/A% 30.01 in 4.0 mi SE 5.8 mph - N/A   Haze
8:53 AM 59.0 °F - N/A% 30.01 in 4.0 mi South 4.6 mph - N/A   Haze
9:53 AM 61.0 °F 61.0 °F 100% 30.00 in 5.0 mi South 5.8 mph - N/A   Overcast
10:15 AM 62.6 °F 60.8 °F 94% 30.00 in 7.0 mi South 6.9 mph - N/A   Overcast
10:40 AM 64.4 °F 60.8 °F 88% 30.00 in 9.0 mi South 8.1 mph - N/A   Overcast
10:53 AM 64.9 °F 61.0 °F 87% 30.00 in 10.0 mi South 6.9 mph - N/A   Overcast
11:15 AM 66.2 °F 60.8 °F 83% 30.01 in 10.0 mi South 4.6 mph - N/A   Overcast
11:53 AM 70.0 °F 61.0 °F 73% 29.99 in 10.0 mi South 6.9 mph - N/A   Scattered Clouds
12:53 PM 71.1 °F 59.0 °F 66% 29.96 in 10.0 mi SW 8.1 mph - N/A   Mostly Cloudy
1:53 PM 73.0 °F 57.0 °F 57% 29.94 in 10.0 mi South 8.1 mph - N/A   Mostly Cloudy
2:53 PM 75.0 °F 55.9 °F 51% 29.93 in 10.0 mi SW 8.1 mph 16.1 mph N/A   Mostly Cloudy
3:53 PM 73.0 °F 60.1 °F 64% 29.93 in 10.0 mi SSW 11.5 mph - N/A   Overcast
4:53 PM 72.0 °F 59.0 °F 64% 29.93 in 10.0 mi SSW 8.1 mph - N/A   Overcast
5:53 PM 72.0 °F 59.0 °F 64% 29.93 in 10.0 mi SSW 6.9 mph - N/A   Overcast
6:53 PM 69.1 °F 60.1 °F 73% 29.93 in 10.0 mi South 4.6 mph - N/A   Clear
7:53 PM 63.0 °F 59.0 °F 87% 29.94 in 10.0 mi SSE 4.6 mph - N/A   Clear
8:53 PM 62.1 °F 59.0 °F 90% 29.95 in 10.0 mi SSE 4.6 mph - N/A   Clear
9:53 PM 64.0 °F 62.1 °F 93% 29.95 in 10.0 mi South 8.1 mph - N/A   Clear
10:53 PM 64.9 °F 62.1 °F 90% 29.96 in 9.0 mi South 8.1 mph - N/A   Clear
11:29 PM 62.6 °F 62.6 °F 100% 29.96 in 8.0 mi South 5.8 mph - N/A   Scattered Clouds
11:53 PM 63.0 °F 62.1 °F 97% 29.95 in 6.0 mi South 8.1 mph - N/A   Scattered Clouds